• Join FlightAware (Why Join?)
  • Login
  • US Flag 
10:24PM EDT


 

Airport Tracker/Info


-or-


 

Live Flight TrackerFlight Track Log ✈ FAO895 ✈ 29-Mar-2014 ✈ KIAG - KPIE

Flight Track Log - Related Links

Times and Time Zones

All times are in EDT time to prevent confusion due to time zone crossing. See the FAO895 flight status page for this flight to view local times or setup timezone preferences in your user account.

Time Position Orientation Groundspeed Altitude Reporting Facility
EDT Latitude Longitude Course Direction KTS MPH feet Rate Location/Type
02:33PM 43.1167 -78.9333 90° East 167 192 1,300  Level Buffalo TRACON
02:34PM 43.1167 -78.9167 90° East 163 188 1,900 1,980 Climbing Buffalo TRACON
02:35PM 43.0833 -78.8500 124° Southeast 227 261 3,700 2,280 Climbing Buffalo TRACON
02:36PM 43.0167 -78.8500 180° South 294 338 6,500 2,340 Climbing Buffalo TRACON
02:38PM 42.8319 -78.9136 194° South 286 329 12,100 2,280 Climbing Cleveland Center
02:39PM 42.7478 -78.9400 193° South 304 350 14,700 2,520 Climbing Cleveland Center
02:40PM 42.6458 -78.9739 194° South 313 360 17,300 2,280 Climbing Cleveland Center
02:41PM 42.5553 -79.0033 193° South 334 384 19,400 1,680 Climbing Cleveland Center
02:42PM 42.4639 -79.0333 194° South 337 388 20,800 1,380 Climbing Cleveland Center
02:43PM 42.3647 -79.0656 194° South 345 397 22,300 1,560 Climbing Cleveland Center
02:44PM 42.2697 -79.0953 193° South 349 402 24,100 1,260 Climbing Cleveland Center
02:45PM 42.1769 -79.1328 197° South 351 404 24,900 780 Climbing Cleveland Center
02:46PM 42.0894 -79.2036 211° Southwest 367 422 25,800 1,260 Climbing Cleveland Center
02:47PM 42.0017 -79.2744 211° Southwest 369 425 27,500 1,560 Climbing Cleveland Center
02:48PM 41.8978 -79.3581 211° Southwest 367 422 29,100 1,260 Climbing Cleveland Center
02:49PM 41.8106 -79.4292 211° Southwest 368 423 30,100 1,020 Climbing Cleveland Center
02:50PM 41.7233 -79.4981 211° Southwest 367 422 31,300 900 Climbing Cleveland Center
02:52PM 41.6381 -79.5692 212° Southwest 365 420 32,000 300 Climbing Cleveland Center
02:53PM 41.5522 -79.6375 211° Southwest 364 419 32,000  Level Cleveland Center
02:54PM 41.4664 -79.7061 211° Southwest 364 419 32,000  Level Cleveland Center
02:55PM 41.3639 -79.7864 210° Southwest 362 417 32,000  Level Cleveland Center
02:56PM 41.2781 -79.8556 211° Southwest 362 417 32,000  Level Cleveland Center
02:57PM 41.1933 -79.9214 210° Southwest 361 415 32,000  Level Cleveland Center
02:58PM 41.1178 -79.9817 211° Southwest 360 414 32,000  Level Cleveland Center
02:59PM 41.0106 -80.0664 211° Southwest 369 425 32,000  Level Cleveland Center
03:00PM 40.9222 -80.1350 210° Southwest 369 425 32,000  Level Cleveland Center
03:01PM 40.8250 -80.2067 209° Southwest 370 426 32,000  Level Cleveland Center
03:02PM 40.7247 -80.2419 195° South 372 428 32,000  Level Cleveland Center
03:03PM 40.6256 -80.2731 193° South 372 428 32,000  Level Cleveland Center
03:04PM 40.5269 -80.3039 193° South 370 426 32,000  Level Cleveland Center
03:05PM 40.4283 -80.3344 193° South 368 423 32,000  Level Cleveland Center
03:06PM 40.3242 -80.3675 194° South 363 418 32,000  Level Cleveland Center
03:07PM 40.2278 -80.3975 193° South 362 417 32,000  Level Cleveland Center
03:08PM 40.1306 -80.4275 193° South 361 415 32,000  Level Cleveland Center
03:09PM 40.0331 -80.4569 193° South 361 415 32,000  Level Cleveland Center
03:10PM 39.9175 -80.4925 193° South 360 414 32,000  Level Cleveland Center
03:11PM 39.8206 -80.5214 193° South 360 414 32,000  Level Cleveland Center
03:12PM 39.7231 -80.5503 193° South 359 413 32,000  Level Cleveland Center
03:13PM 39.6256 -80.5811 194° South 360 414 32,000  Level Cleveland Center
03:14PM 39.5150 -80.6158 194° South 360 414 32,000  Level Indianapolis Center
03:15PM 39.4158 -80.6439 192° South 360 414 32,000  Level Indianapolis Center
03:16PM 39.3169 -80.6747 194° South 361 415 32,000  Level Indianapolis Center
03:17PM 39.2175 -80.7036 193° South 362 417 32,000  Level Indianapolis Center
03:18PM 39.1172 -80.7336 193° South 364 419 32,000 180 Level Indianapolis Center
03:19PM 39.0172 -80.7642 193° South 366 421 32,400 420 Climbing Indianapolis Center
03:20PM 38.9175 -80.7925 192° South 366 421 32,900 240 Climbing Indianapolis Center
03:21PM 38.7994 -80.8272 193° South 364 419 33,000  Climbing Indianapolis Center
03:22PM 38.7014 -80.8567 193° South 362 417 33,000  Level Indianapolis Center
03:23PM 38.6036 -80.8856 193° South 362 417 33,000  Level Indianapolis Center
03:24PM 38.5039 -80.9136 192° South 362 417 33,000  Level Indianapolis Center
03:25PM 38.4044 -80.9433 193° South 362 417 33,000  Level Indianapolis Center
03:26PM 38.3050 -80.9728 193° South 362 417 33,000  Level Indianapolis Center
03:28PM 38.2022 -81.0019 193° South 369 425 33,000  Level Indianapolis Center
03:29PM 38.1008 -81.0328 193° South 370 426 33,000  Level Indianapolis Center
03:30PM 37.9992 -81.0608 192° South 371 427 33,000  Level Indianapolis Center
03:31PM 37.8967 -81.0911 193° South 371 427 33,000  Level Indianapolis Center
03:32PM 37.7725 -81.1217 191° South 382 440 33,000  Level Indianapolis Center
03:33PM 37.6686 -81.1206 180° South 383 441 33,000  Level Indianapolis Center
03:34PM 37.5653 -81.1197 180° South 383 441 33,000  Level Indianapolis Center
03:35PM 37.4417 -81.1178 179° South 383 441 33,000  Level Indianapolis Center
03:36PM 37.3361 -81.1156 179° South 383 441 33,000  Level Indianapolis Center
03:37PM 37.2317 -81.1139 179° South 383 441 33,000  Level Indianapolis Center
03:38PM 37.1289 -81.1111 179° South 384 442 33,000  Level Indianapolis Center
03:39PM 37.0050 -81.1106 180° South 380 437 33,000  Level Indianapolis Center
03:40PM 36.9008 -81.1081 179° South 381 438 33,000  Level Indianapolis Center
03:41PM 36.7975 -81.1058 179° South 381 438 33,000  Level Indianapolis Center
03:42PM 36.6800 -81.1033 179° South 374 430 33,000  Level Atlanta Center
03:43PM 36.5758 -81.1022 180° South 374 430 33,000  Level Atlanta Center
03:44PM 36.4694 -81.1008 179° South 374 430 33,000  Level Atlanta Center
03:45PM 36.3631 -81.0969 178° South 379 436 33,000  Level Atlanta Center
03:46PM 36.2586 -81.0956 179° South 385 443 33,000  Level Atlanta Center
03:47PM 36.1544 -81.0944 180° South 385 443 33,000  Level Atlanta Center
03:48PM 36.0481 -81.0931 179° South 385 443 33,000  Level Atlanta Center
03:49PM 35.9436 -81.0917 179° South 385 443 33,000  Level Atlanta Center
03:50PM 35.8372 -81.0906 180° South 385 443 33,000 -240 Level Atlanta Center
03:51PM 35.7225 -81.0869 179° South 385 443 32,600 -480 Descending Atlanta Center
03:52PM 35.6181 -81.0831 178° South 385 443 32,100 -300 Descending Atlanta Center
03:53PM 35.5136 -81.0817 179° South 385 443 32,000 -60 Descending Atlanta Center
03:54PM 35.4094 -81.0828 180° South 385 443 32,000  Level Atlanta Center
03:55PM 35.3072 -81.0814 179° South 380 437 32,000  Level Atlanta Center
03:56PM 35.1606 -81.0822 180° South 378 435 32,000  Level Jacksonville Center
03:57PM 35.0583 -81.0769 178° South 378 435 32,000  Level Jacksonville Center
03:58PM 34.9561 -81.0739 179° South 378 435 32,000  Level Jacksonville Center
03:59PM 34.8519 -81.0761 181° South 378 435 32,000  Level Jacksonville Center
04:00PM 34.7561 -81.1011 192° South 373 429 32,000  Level Jacksonville Center
04:01PM 34.6628 -81.1358 197° South 362 417 32,000  Level Jacksonville Center
04:02PM 34.5675 -81.1706 197° South 356 410 32,000  Level Jacksonville Center
04:03PM 34.4719 -81.2075 198° South 356 410 32,000  Level Jacksonville Center
04:04PM 34.3786 -81.2397 196° South 361 415 32,000  Level Jacksonville Center
04:05PM 34.2831 -81.2742 197° South 361 415 32,000  Level Jacksonville Center
04:06PM 34.1853 -81.3086 196° South 361 415 32,000  Level Jacksonville Center
04:07PM 34.0856 -81.3406 195° South 361 415 32,000  Level Jacksonville Center
04:08PM 33.9922 -81.3747 197° South 361 415 32,000  Level Jacksonville Center
04:09PM 33.8944 -81.4114 197° South 361 415 32,000  Level Jacksonville Center
04:10PM 33.7967 -81.4431 195° South 361 415 32,000  Level Jacksonville Center
04:11PM 33.6969 -81.4772 196° South 361 415 32,000  Level Jacksonville Center
04:12PM 33.5972 -81.5011 191° South 366 421 32,000  Level Jacksonville Center
04:13PM 33.4931 -81.5253 191° South 372 428 32,000  Level Jacksonville Center
04:14PM 33.3911 -81.5492 191° South 372 428 32,000  Level Jacksonville Center
04:15PM 33.2889 -81.5706 190° South 372 428 32,000  Level Jacksonville Center
04:16PM 33.1850 -81.5969 192° South 372 428 32,000  Level Jacksonville Center
04:17PM 33.0808 -81.6208 191° South 377 434 32,000  Level Jacksonville Center
04:18PM 32.9744 -81.6447 191° South 382 440 32,000  Level Jacksonville Center
04:19PM 32.8703 -81.6658 190° South 387 445 32,000  Level Jacksonville Center
04:20PM 32.7642 -81.6869 189° South 392 451 32,000  Level Jacksonville Center
04:21PM 32.6600 -81.7131 192° South 392 451 32,000  Level Jacksonville Center
04:22PM 32.5453 -81.7392 191° South 392 451 32,000  Level Jacksonville Center
04:23PM 32.4369 -81.7603 189° South 392 451 32,000  Level Jacksonville Center
04:24PM 32.3433 -81.7836 192° South 392 451 32,000  Level Jacksonville Center
04:25PM 32.2225 -81.8072 189° South 392 451 32,000  Level Jacksonville Center
04:26PM 32.1286 -81.8278 191° South 392 451 32,000  Level Jacksonville Center
04:27PM 32.0100 -81.8561 191° South 392 451 32,000  Level Jacksonville Center
04:28PM 31.9014 -81.8769 189° South 392 451 32,000  Level Jacksonville Center
04:29PM 31.8036 -81.8975 190° South 392 451 32,000  Level Jacksonville Center
04:30PM 31.6847 -81.9233 190° South 392 451 32,000  Level Jacksonville Center
04:31PM 31.5742 -81.9489 191° South 392 451 32,000  Level Jacksonville Center
04:32PM 31.4742 -81.9694 190° South 397 457 32,000  Level Jacksonville Center
04:33PM 31.3469 -81.9950 190° South 414 476 32,000  Level Jacksonville Center
04:34PM 31.2344 -82.0203 191° South 419 482 32,000  Level Jacksonville Center
04:35PM 31.1219 -82.0408 189° South 419 482 32,000  Level Jacksonville Center
04:36PM 31.0050 -82.0686 192° South 419 482 32,000  Level Jacksonville Center
04:37PM 30.8944 -82.0911 190° South 419 482 32,000  Level Jacksonville Center
04:38PM 30.7797 -82.1139 190° South 419 482 32,000  Level Jacksonville Center
04:39PM 30.6672 -82.1392 191° South 419 482 32,000  Level Jacksonville Center
04:40PM 30.5525 -82.1592 189° South 419 482 32,000  Level Jacksonville Center
04:41PM 30.4358 -82.1842 190° South 430 495 32,000  Level Jacksonville Center
04:42PM 30.3189 -82.2044 189° South 425 489 32,000  Level Jacksonville Center
04:43PM 30.2042 -82.2292 191° South 424 488 32,000  Level Jacksonville Center
04:44PM 30.0917 -82.2539 191° South 418 481 32,000 -360 Level Jacksonville Center
04:45PM 29.9853 -82.2786 191° South 418 481 31,300 -1,200 Descending Jacksonville Center
04:46PM 29.8706 -82.3033 191° South 423 487 29,600 -1,860 Descending Jacksonville Center
04:47PM 29.7558 -82.3281 191° South 423 487 27,600 -1,380 Descending Jacksonville Center
04:48PM 29.6433 -82.3478 189° South 423 487 26,900 -300 Descending Jacksonville Center
04:49PM 29.5408 -82.3483 180° South 402 463 27,000  Climbing Jacksonville Center
04:50PM 29.4428 -82.3275 170° South 369 425 27,000  Level Jacksonville Center
04:51PM 29.3444 -82.3064 169° South 364 419 27,000  Level Jacksonville Center
04:52PM 29.2442 -82.2881 171° South 364 419 27,000  Level Jacksonville Center
04:53PM 29.1481 -82.2672 169° South 364 419 27,000 -720 Level Jacksonville Center
04:54PM 29.0478 -82.2656 179° South 364 419 25,600 -2,160 Descending Jacksonville Center
04:55PM 28.9436 -82.2661 180° South 354 407 22,700 -2,760 Descending Jacksonville Center
04:56PM 28.8517 -82.2597 177° South 344 396 20,100 -2,580 Descending Jacksonville Center
04:59PM 28.6500 -82.2667 182° South 344 396 14,900 -2,460 Descending Tampa TRACON
05:00PM 28.5500 -82.2500 172° South 333 383 12,600 -2,100 Descending Tampa TRACON
05:01PM 28.4833 -82.2833 204° Southwest 290 334 10,700 -1,380 Descending Tampa TRACON
05:01PM 28.4500 -82.3500 240° Southwest 244 281 10,000 -420 Descending Tampa TRACON
05:02PM 28.4333 -82.4167 254° West 250 288 10,000  Level Tampa TRACON
05:03PM 28.4167 -82.5000 257° West 248 285 10,000 -600 Level Tampa TRACON
05:04PM 28.3833 -82.5667 240° Southwest 242 278 8,900 -1,320 Descending Tampa TRACON
05:06PM 28.3667 -82.6333 254° West 223 257 7,300 -1,500 Descending Tampa TRACON
05:06PM 28.3500 -82.7000 254° West 221 254 6,000 -900 Descending Tampa TRACON
05:07PM 28.3000 -82.7333 210° Southwest 238 274 5,700 -840 Descending Tampa TRACON
05:08PM 28.2333 -82.7500 192° South 230 265 4,400 -1,260 Descending Tampa TRACON
05:09PM 28.1667 -82.7333 168° South 217 250 3,100 -900 Descending Tampa TRACON
05:10PM 28.1167 -82.7167 164° South 205 236 2,600 -300 Descending Tampa TRACON
05:11PM 28.0500 -82.7167 180° South 216 249 2,500 -600 Descending Tampa TRACON
05:13PM 27.9833 -82.7000 168° South 175 201 1,300 -900 Descending Tampa TRACON
05:14PM 27.9500 -82.7000 180° South 118 136 600 -720 Descending Tampa TRACON
05:16PM 27.9100 -82.6875 North  Level Estimated
05:23PM 27.9100 -82.6875 North  Level Estimated
05:24PM 27.9100 -82.6875 North  Level Estimated